Regional Weather Roundup
Issued by NWS

Home | Current Version | Previous Version | Graphics & Text | Print | Product List | Glossary On
Versions: 1 2 3 4 5 6 7 8 9 10 11 12 13 14 15 16 17 18 19 20 21 22 23 24 25 26 27 28 29 30 31 32 33 34 35 36 37 38 39 40 41 42 43 44 45 46 47 48 49 50
327
ASUS43 KTOP 221059
RWRKS

WEATHER ROUNDUP FOR KANSAS
NATIONAL WEATHER SERVICE GOODLAND KS
600 AM CDT THU JUN 22 2017

NOTE:  "FAIR" INDICATES FEW OR NO CLOUDS BELOW 12,000 FEET WITH NO
SIGNIFICANT WEATHER AND/OR OBSTRUCTIONS TO VISIBILITY.

KSZ001>006-013>018-027>032-041>047-221200-
NORTHWEST KANSAS

CITY           SKY/WX    TMP DP  RH WIND       PRES   REMARKS
GOODLAND       CLEAR     73  54  51 SW18      29.77F
HAYS           CLEAR     64  60  87 NE3       29.75S
HILL CITY      CLEAR     67  59  75 S12       29.72F
RUSSELL        CLEAR     66  57  72 SE3       29.73S
$$

KSZ061>065-074>080-084>089-221200-
SOUTHWEST KANSAS

CITY           SKY/WX    TMP DP  RH WIND       PRES   REMARKS
DODGE CITY     PTCLDY    64  58  80 S6        29.80S
ELKHART          N/A     65  50  58 W14         N/A
GARDEN CITY    CLEAR     66  59  78 SW9       29.78F
GREAT BEND     CLOUDY    65  60  84 S9        29.75F
LIBERAL        CLOUDY    66  60  81 W15       29.81S
$$

KSZ066>073-081>083-090>101-221200-
SOUTHEAST KANSAS

CITY           SKY/WX    TMP DP  RH WIND       PRES   REMARKS
CHANUTE        CLEAR     67  64  90 SE8       29.80F
COFFEYVILLE    CLEAR     68  65  90 SE7       29.79F
HUTCHINSON     CLOUDY    69  62  78 SE9       29.76F
MEDICINE LODGE   N/A     69  58  67 SE6       29.76S
NEWTON         PTCLDY    67  62  84 SE7       29.79F
PARSONS        CLEAR     69  64  84 SE3       29.81F
WICHITA INTL   MOCLDY    68  64  87 SE8       29.77F
WICHITA JABRA  CLEAR     68  64  87 S7        29.78F
WINFIELD       PTCLDY    69  65  86 E5        29.79F
$$

KSZ007>012-019>026-033>040-048>060-102>105-221200-
NORTHEAST KANSAS

CITY           SKY/WX    TMP DP  RH WIND       PRES   REMARKS
CONCORDIA      CLOUDY    75  60  59 S15       29.75F
EMPORIA        CLEAR     65  63  93 S3        29.80S
LAWRENCE       CLOUDY    67  66  97 SE8       29.79F
MANHATTAN      CLOUDY    74  63  68 W7        29.76R
OLATHE IND     CLOUDY    67  63  87 SE6       29.82S
OLATHE EXE     MOCLDY    67  65  93 CALM      29.82S
SALINA         PTCLDY    74  62  66 S13       29.72F
TOPEKA BILLARD CLOUDY    70  66  87 S6        29.78F
TOPEKA FORBES  PTCLDY    71  65  81 S8        29.79F
$$




USA.gov is the U.S. government's official web portal to all federal, state and local government web resources and services.